Location: Boitzum
(52.1496°N, 9.6943°E)
Time: 00:58:54
(UTC+00:00)

BREEZE M DEB (TANK) - Pass Details

Date: 13 January 2026
Orbit: 286 x 11206 km, 49.5° (Epoch: 18 February)

Event Time Altitude Azimuth Distance (km) Brightness Sun altitude
Exits shadow 05:21:00 31° 230° (SW) 923 3.1 -18.1°
Maximum altitude 05:21:57 37° 192° (SSW) 916 3.4 -18.0°
Drops below altitude 10° 05:27:58 10° 127° (SE) 3,303 7.3 -17.1°
Sets 05:33:15 0° 122° (ESE) 5,611 8.9 -16.3°
